<?xml version="1.0"?>
<gpx xmlns="http://www.topografix.com/GPX/1/1" xmlns:xsi="http://www.w3.org/2001/XMLSchema-instance" version="1.1" creator="GPX RubyGem 1.0.0 -- http://dougfales.github.io/gpx/" xsi:schemaLocation="http://www.topografix.com/GPX/1/1 http://www.topografix.com/GPX/1/1/gpx.xsd">
  <metadata>
    <name/>
    <time>2026-05-08T07:49:08+00:00</time>
    <bound minlat="90.0" minlon="180.0" maxlat="-90.0" maxlon="-180.0"/>
  </metadata>
  <trk>
    <name/>
    <trkseg>
      <trkpt lat="45.653148" lon="12.299439">
        <time>1970-01-01T00:00:00+00:00</time>
        <ele>9.0</ele>
      </trkpt>
      <trkpt lat="45.653162" lon="12.299596">
        <time>1970-01-01T00:00:00+00:00</time>
        <ele>9.0</ele>
      </trkpt>
      <trkpt lat="45.653217" lon="12.299761">
        <time>1970-01-01T00:00:00+00:00</time>
        <ele>9.0</ele>
      </trkpt>
      <trkpt lat="45.653489" lon="12.299618">
        <time>1970-01-01T00:00:00+00:00</time>
        <ele>8.0</ele>
      </trkpt>
      <trkpt lat="45.653563" lon="12.299911">
        <time>1970-01-01T00:00:00+00:00</time>
        <ele>8.0</ele>
      </trkpt>
      <trkpt lat="45.653593" lon="12.299909">
        <time>1970-01-01T00:00:00+00:00</time>
        <ele>8.0</ele>
      </trkpt>
      <trkpt lat="45.653652" lon="12.299892">
        <time>1970-01-01T00:00:00+00:00</time>
        <ele>8.0</ele>
      </trkpt>
      <trkpt lat="45.654359" lon="12.299358">
        <time>1970-01-01T00:00:00+00:00</time>
        <ele>10.0</ele>
      </trkpt>
      <trkpt lat="45.654547" lon="12.299296">
        <time>1970-01-01T00:00:00+00:00</time>
        <ele>11.0</ele>
      </trkpt>
      <trkpt lat="45.654604" lon="12.299312">
        <time>1970-01-01T00:00:00+00:00</time>
        <ele>11.0</ele>
      </trkpt>
      <trkpt lat="45.654698" lon="12.29939">
        <time>1970-01-01T00:00:00+00:00</time>
        <ele>10.0</ele>
      </trkpt>
      <trkpt lat="45.654673" lon="12.29944">
        <time>1970-01-01T00:00:00+00:00</time>
        <ele>10.0</ele>
      </trkpt>
      <trkpt lat="45.654594" lon="12.299634">
        <time>1970-01-01T00:00:00+00:00</time>
        <ele>9.0</ele>
      </trkpt>
      <trkpt lat="45.654691" lon="12.299873">
        <time>1970-01-01T00:00:00+00:00</time>
        <ele>9.0</ele>
      </trkpt>
      <trkpt lat="45.654975" lon="12.300166">
        <time>1970-01-01T00:00:00+00:00</time>
        <ele>10.0</ele>
      </trkpt>
      <trkpt lat="45.655154" lon="12.300238">
        <time>1970-01-01T00:00:00+00:00</time>
        <ele>10.0</ele>
      </trkpt>
      <trkpt lat="45.655154" lon="12.300238">
        <time>1970-01-01T00:00:00+00:00</time>
        <ele>10.0</ele>
      </trkpt>
      <trkpt lat="45.655158" lon="12.30024">
        <time>1970-01-01T00:00:00+00:00</time>
        <ele>10.0</ele>
      </trkpt>
      <trkpt lat="45.655176" lon="12.300345">
        <time>1970-01-01T00:00:00+00:00</time>
        <ele>10.0</ele>
      </trkpt>
      <trkpt lat="45.655204" lon="12.301149">
        <time>1970-01-01T00:00:00+00:00</time>
        <ele>12.0</ele>
      </trkpt>
      <trkpt lat="45.653626" lon="12.3012">
        <time>1970-01-01T00:00:00+00:00</time>
        <ele>10.0</ele>
      </trkpt>
      <trkpt lat="45.65363" lon="12.301078">
        <time>1970-01-01T00:00:00+00:00</time>
        <ele>9.0</ele>
      </trkpt>
      <trkpt lat="45.653593" lon="12.300709">
        <time>1970-01-01T00:00:00+00:00</time>
        <ele>8.0</ele>
      </trkpt>
      <trkpt lat="45.653482" lon="12.300419">
        <time>1970-01-01T00:00:00+00:00</time>
        <ele>8.0</ele>
      </trkpt>
      <trkpt lat="45.653354" lon="12.300125">
        <time>1970-01-01T00:00:00+00:00</time>
        <ele>8.0</ele>
      </trkpt>
      <trkpt lat="45.653217" lon="12.299761">
        <time>1970-01-01T00:00:00+00:00</time>
        <ele>9.0</ele>
      </trkpt>
      <trkpt lat="45.653162" lon="12.299596">
        <time>1970-01-01T00:00:00+00:00</time>
        <ele>9.0</ele>
      </trkpt>
      <trkpt lat="45.653148" lon="12.299439">
        <time>1970-01-01T00:00:00+00:00</time>
        <ele>9.0</ele>
      </trkpt>
    </trkseg>
  </trk>
</gpx>
